TimeAEST,TemperatureF,Dew PointF,Humidity,Sea Level PressureIn,VisibilityMPH,Wind Direction,Wind SpeedMPH,Gust SpeedMPH,PrecipitationIn,Events,Conditions,WindDirDegrees,DateUTC
12:00 AM,73,69,85,29.96,,Calm,Calm,,,,,,2012-10-11 14:00:00
12:00 AM,73.4,69.8,88,29.95,6.2,Calm,Calm,-,N/A,,Partly Cloudy,0,2012-10-11 14:00:00
12:30 AM,73.4,69.8,88,29.95,6.2,Calm,Calm,-,N/A,,Partly Cloudy,0,2012-10-11 14:30:00
1:00 AM,72,69,87,29.96,,Calm,Calm,,,,,,2012-10-11 15:00:00
1:00 AM,71.6,69.8,94,29.95,6.2,Calm,Calm,-,N/A,,Partly Cloudy,0,2012-10-11 15:00:00
1:30 AM,71.6,68.0,88,29.95,6.2,Calm,Calm,-,N/A,,Partly Cloudy,0,2012-10-11 15:30:00
2:00 AM,71.6,68.0,88,29.92,6.2,Calm,Calm,-,N/A,,Partly Cloudy,0,2012-10-11 16:00:00
2:30 AM,69.8,69.8,100,29.92,6.2,Calm,Calm,-,N/A,,Partly Cloudy,0,2012-10-11 16:30:00
3:00 AM,74,68,76,29.93,,SSW,4.6,,,,,200,2012-10-11 17:00:00
3:00 AM,73.4,68.0,83,29.92,6.2,SSW,4.6,-,N/A,,Partly Cloudy,200,2012-10-11 17:00:00
3:30 AM,73.4,68.0,83,29.92,6.2,South,6.9,-,N/A,,Partly Cloudy,170,2012-10-11 17:30:00
4:00 AM,71.6,68.0,88,29.92,6.2,SE,8.1,-,N/A,,Partly Cloudy,130,2012-10-11 18:00:00
4:30 AM,71.6,68.0,88,29.95,6.2,South,3.5,-,N/A,,Partly Cloudy,190,2012-10-11 18:30:00
5:00 AM,71.6,66.2,83,29.95,6.2,SE,6.9,-,N/A,,Partly Cloudy,140,2012-10-11 19:00:00
5:30 AM,71.6,68.0,88,29.98,6.2,SSE,5.8,-,N/A,,Partly Cloudy,150,2012-10-11 19:30:00
6:00 AM,73.4,68.0,83,29.98,6.2,SSE,6.9,-,N/A,,Partly Cloudy,150,2012-10-11 20:00:00
6:30 AM,75.2,68.0,78,30.01,6.2,South,8.1,-,N/A,,Partly Cloudy,190,2012-10-11 20:30:00
7:00 AM,75,68,72,30.02,,South,9.2,,,,,180,2012-10-11 21:00:00
7:00 AM,75.2,68.0,78,30.01,6.2,South,9.2,-,N/A,,Mostly Cloudy,180,2012-10-11 21:00:00
7:30 AM,77.0,68.0,74,30.01,6.2,South,10.4,-,N/A,,Mostly Cloudy,180,2012-10-11 21:30:00
8:00 AM,77.0,68.0,74,30.04,6.2,South,12.7,-,N/A,,Scattered Clouds,170,2012-10-11 22:00:00
8:30 AM,78.8,68.0,69,30.04,6.2,SSE,12.7,-,N/A,,Mostly Cloudy,160,2012-10-11 22:30:00
9:00 AM,78.8,68.0,69,30.04,6.2,SSE,13.8,-,N/A,,Mostly Cloudy,150,2012-10-11 23:00:00
9:30 AM,78.8,64.4,61,30.04,6.2,SSE,17.3,-,N/A,,Mostly Cloudy,160,2012-10-11 23:30:00
10:00 AM,82,63,42,30.05,,SSE,21.9,,,,,150,2012-10-12 00:00:00
10:00 AM,82.4,62.6,51,30.04,6.2,SSE,21.9,-,N/A,,Scattered Clouds,150,2012-10-12 00:00:00
10:30 AM,82.4,62.6,51,30.04,6.2,SE,17.3,-,N/A,,Scattered Clouds,130,2012-10-12 00:30:00
11:00 AM,84.2,62.6,48,30.04,6.2,ESE,13.8,-,N/A,,Partly Cloudy,120,2012-10-12 01:00:00
11:30 AM,84.2,60.8,45,30.01,6.2,SE,13.8,-,N/A,,Partly Cloudy,130,2012-10-12 01:30:00
12:00 PM,83,61,37,30.00,19,ESE,13.8,,,,Partly Cloudy,120,2012-10-12 02:00:00
12:00 PM,82.4,60.8,48,30.01,6.2,ESE,13.8,-,N/A,,Partly Cloudy,120,2012-10-12 02:00:00
12:30 PM,84.2,59.0,42,29.98,6.2,ESE,11.5,-,N/A,,Partly Cloudy,120,2012-10-12 02:30:00
1:00 PM,84,59,32,29.98,,ESE,8.1,,,,,110,2012-10-12 03:00:00
1:00 PM,84.2,59.0,42,29.98,6.2,ESE,8.1,-,N/A,,Partly Cloudy,110,2012-10-12 03:00:00
1:30 PM,86.0,59.0,40,29.95,6.2,ESE,9.2,-,N/A,,Partly Cloudy,110,2012-10-12 03:30:00
2:00 PM,84.2,59.0,42,29.95,6.2,ESE,9.2,-,N/A,,Partly Cloudy,110,2012-10-12 04:00:00
2:30 PM,84.2,59.0,42,29.95,6.2,ESE,9.2,-,N/A,,Partly Cloudy,110,2012-10-12 04:30:00
3:00 PM,84.2,59.0,42,29.92,-9999.0,East,10.4,-,N/A,,Clear,80,2012-10-12 05:00:00
3:30 PM,82.4,60.8,48,29.92,-9999.0,ESE,8.1,-,N/A,,Clear,110,2012-10-12 05:30:00
4:00 PM,83,59,34,29.94,,SSE,9.2,,,,,150,2012-10-12 06:00:00
4:00 PM,82.4,59.0,45,29.92,-9999.0,SSE,9.2,-,N/A,,Clear,150,2012-10-12 06:00:00
4:30 PM,82.4,59.0,45,29.92,-9999.0,SSE,9.2,-,N/A,,Clear,150,2012-10-12 06:30:00
5:00 PM,82.4,59.0,45,29.92,-9999.0,ESE,8.1,-,N/A,,Clear,120,2012-10-12 07:00:00
5:30 PM,78.8,59.0,51,29.95,-9999.0,SSE,9.2,-,N/A,,Clear,150,2012-10-12 07:30:00
6:00 PM,77.0,59.0,54,29.98,-9999.0,SSE,10.4,-,N/A,,Clear,150,2012-10-12 08:00:00
6:30 PM,75.2,57.2,53,29.98,-9999.0,SE,12.7,-,N/A,,Clear,140,2012-10-12 08:30:00
7:00 PM,74,57,46,30.02,,South,6.9,,,,,170,2012-10-12 09:00:00
7:00 PM,73.4,57.2,57,30.01,6.2,South,6.9,-,N/A,,Scattered Clouds,170,2012-10-12 09:00:00
7:30 PM,75.2,57.2,53,30.01,6.2,South,6.9,-,N/A,,Scattered Clouds,170,2012-10-12 09:30:00
8:00 PM,75.2,57.2,53,30.01,6.2,South,9.2,-,N/A,,Mostly Cloudy,170,2012-10-12 10:00:00
8:30 PM,75.2,57.2,53,30.04,6.2,South,8.1,-,N/A,,Overcast,170,2012-10-12 10:30:00
9:00 PM,74,57,45,30.04,,South,8.1,,,,Overcast,170,2012-10-12 11:00:00
9:00 PM,75.2,57.2,53,30.04,-9999.0,South,8.1,-,N/A,,Unknown,170,2012-10-12 11:00:00
9:30 PM,75.2,57.2,53,30.04,6.2,South,9.2,-,N/A,,Overcast,170,2012-10-12 11:30:00
10:00 PM,74,56,44,30.05,,South,10.4,,,,,170,2012-10-12 12:00:00
10:00 PM,75.2,57.2,53,30.04,6.2,South,10.4,-,N/A,,Overcast,170,2012-10-12 12:00:00
10:30 PM,75.2,57.2,53,30.04,6.2,South,9.2,-,N/A,,Overcast,170,2012-10-12 12:30:00
11:00 PM,75.2,57.2,53,30.04,6.2,South,6.9,-,N/A,,Overcast,170,2012-10-12 13:00:00
11:30 PM,75.2,57.2,53,30.04,6.2,South,9.2,-,N/A,,Overcast,180,2012-10-12 13:30:00